Date,TemperatureHighF,TemperatureAvgF,TemperatureLowF,DewpointHighF,DewpointAvgF,DewpointLowF,HumidityHigh,HumidityAvg,HumidityLow,PressureMaxIn,PressureMinIn,WindSpeedMaxMPH,WindSpeedAvgMPH,GustSpeedMaxMPH,PrecipitationSumIn
2013-3-1,50.5,48.6,46.9,48.5,47.2,45.8,98,95,92,30.06,30.04,0,0,0,0.00
2013-3-2,89.4,61.3,47.3,57.9,51.5,46.7,99,75,33,30.05,29.86,3,0,5,0.13
2013-3-3,70.1,54.7,43.1,53.4,48.4,42.6,99,82,45,29.92,29.83,7,1,11,0.00
2013-3-4,67.8,49.0,39.9,50.5,44.3,39.6,99,86,54,29.95,29.85,5,1,8,0.00
2013-3-5,46.5,40.6,38.4,43.8,40.1,38.2,99,98,90,29.88,29.85,3,0,6,0.00
2013-3-8,47.8,46.0,44.9,43.0,42.2,41.0,91,87,81,29.88,29.80,5,2,9,0.12
2013-3-9,65.6,49.5,41.0,46.9,42.2,37.7,99,79,39,30.08,29.88,5,1,9,0.30
2013-3-18,70.6,52.9,48.5,59.9,46.1,42.9,81,78,69,30.36,30.00,10,1,20,0.03
2013-3-19,75.5,54.8,43.8,53.4,44.7,34.5,99,72,41,30.36,30.27,5,1,11,0.00
2013-3-20,69.0,55.7,48.7,59.7,52.2,46.4,99,89,65,30.37,30.28,7,1,11,0.01
2013-3-21,70.8,53.3,39.9,51.3,43.6,39.3,99,74,33,30.37,30.21,6,1,11,0.00
2013-3-22,73.4,54.4,40.8,44.7,33.0,21.5,99,55,16,30.33,30.21,5,1,11,0.00
2013-3-23,77.1,55.2,41.9,44.6,34.5,23.0,85,54,17,30.36,30.22,4,1,9,0.00
2013-3-24,79.7,56.3,41.0,52.8,45.2,36.4,97,71,34,30.31,30.15,5,1,9,0.00
2013-3-25,69.6,50.5,40.4,51.2,44.8,40.2,99,83,51,30.25,30.15,8,1,9,0.00
2013-3-26,74.1,55.7,41.9,52.5,46.9,41.6,99,76,45,30.25,30.12,5,1,10,0.00
2013-3-27,70.8,56.5,45.1,57.0,51.4,44.3,99,85,54,30.22,30.15,5,1,9,0.00
2013-3-28,77.9,59.6,51.0,60.9,54.8,50.8,99,86,50,30.30,30.20,5,1,9,0.01
2013-3-29,81.6,62.0,47.1,60.9,53.1,46.8,99,77,41,30.31,30.18,4,1,9,0.00
2013-3-30,77.1,60.1,52.3,59.2,54.2,48.5,98,83,41,30.27,30.16,4,1,9,0.01
2013-3-31,73.2,56.8,49.4,60.3,52.6,49.1,99,88,51,30.27,30.20,6,0,14,0.02